Regional Weather Roundup
Issued by NWS

Home | Current Version | Previous Version | Graphics & Text | Print | Product List | Glossary On
Versions: 1 2 3 4 5 6 7 8 9 10 11 12 13 14 15 16 17 18 19 20 21 22 23 24 25 26 27 28 29 30 31 32 33 34 35 36 37 38 39 40 41 42 43 44 45 46 47 48 49 50
000
ASUS43 KMPX 141401
RWRMN
WEATHER ROUNDUP FOR MINNESOTA
NATIONAL WEATHER SERVICE TWIN CITIES/CHANHASSEN MN
800 AM CST THU DEC 14 2017


NOTE: "FAIR" INDICATES FEW OR NO CLOUDS BELOW 12,000 FEET WITH NO
SIGNIFICANT WEATHER AND/OR OBSTRUCTIONS TO VISIBILITY. N/A MEANS
CURRENT SKY AND/OR WEATHER CONDITIONS ARE NOT AVAILABLE.

MNZ060>063-068>070-141500-
   Twin Cities Metro

CITY           SKY/WX    TMP DP  RH WIND       PRES   REMARKS
TWIN CITIES    MOCLDY    16  12  84 CALM      30.03S
ST PAUL        CLEAR     14  11  87 CALM      30.05R
CRYSTAL        CLOUDY    12   8  84 CALM      30.02S
BLAINE         MOCLDY    12  12 100 CALM      30.02R
LAKEVILLE      CLEAR      7   5  92 CALM      30.02S
EDEN PRAIRIE   CLOUDY    14  11  87 S3        30.01S
SOUTH ST PAUL  CLEAR     16  13  87 CALM      30.03S
LAKE ELMO      FAIR      18  14  86 CALM      30.03S
$$
MNZ001>005-007-008-013>017-022>024-027-028-141500-
   Northwest Minnesota

CITY           SKY/WX    TMP DP  RH WIND       PRES   REMARKS
BEMIDJI        LGT SNOW  13  10  90 W5        29.95F WCI   5
HALLOCK        CLOUDY    19  16  86 NW12      30.01S WCI   7
ROSEAU         PTCLDY    12   9  85 NW7       29.98R WCI   2
WARROAD        FLURRIES  10   7  85 W6        29.97R WCI   1
CROOKSTON      CLOUDY    18  16  93 NW7       30.02S WCI   8
FOSSTON        CLOUDY    12  12 100 W7        29.98S WCI   2
DETROIT LAKES  CLOUDY    18  16  93 NW6       29.99S WCI   9
MOORHEAD       MIX PCPN  19  16  86 CALM      30.03S
PARK RAPIDS    LGT SNOW  14  10  84 W6        29.95R FOG     WCI   5
MAHNOMEN       CLOUDY    16  13  91 NW7       29.99R WCI   6
$$
MNZ006-009>011-018-025>026-141500-
   North Central Minnesota

CITY           SKY/WX    TMP DP  RH WIND       PRES   REMARKS
BAUDETTE       LGT SNOW  11   8  88 W3        29.94S FOG
FLAG ISLAND    CLOUDY     7   5  92 CALM      29.95S
INTL FALLS     LGT SNOW  11   7  84 CALM      29.94S FOG
WASKISH        LGT SNOW  14  12  92 W7        29.95S WCI   4
BIG FORK       LGT SNOW  12   9  85 CALM      29.94S
LONGVILLE      FLURRIES  12  10  92 W3        29.97R
GRAND RAPIDS   LGT SNOW  13  10  88 CALM      29.97R FOG
CRANE LAKE     LGT SNOW  12   9  85 CALM      29.97R
ORR            LGT SNOW  10   7  85 CALM      29.91F
COOK           LGT SNOW  10   9  92 CALM      29.95S
WALKER         LGT SNOW  12   9  87 W3        29.96S
$$
MNZ012-019>021-037-141500-
   Northeast Minnesota

CITY           SKY/WX    TMP DP  RH WIND       PRES   REMARKS
DULUTH         FLURRIES  14  12  92 NW9       29.93R WCI   2
ELY            FLURRIES  12  10  92 W7        29.92S WCI   2
HIBBING        LGT SNOW  12   9  87 W5        29.94S FOG     WCI   4
EVELETH        FLURRIES  13   9  85 NW8       29.94F WCI   2
DULUTH HARBOR  FLURRIES  16  12  86 SW6       30.01R WCI   7
TWO HARBORS    CLOUDY    18  12  79 CALM      29.93S
SILVER BAY     FLURRIES  -8 -11  84 CALM      29.93R
GRAND MARAIS     N/A     14   7  73 CALM      29.98R
G MARAIS ARPRT FLURRIES   7   0  72 NW6       29.87R WCI  -3
$$
MNZ029>031-032-039>041-046>048-054>057-064-141500-
   West Central Minnesota

CITY           SKY/WX    TMP DP  RH WIND       PRES   REMARKS
FERGUS FALLS   CLOUDY    18  16  93 NW3       30.05R
WHEATON        CLOUDY    21  18  86 CALM      30.04S
MORRIS         CLOUDY    19  18  93 N7        30.00S WCI  10
ALEXANDRIA     CLOUDY    15  14  95 NW13      29.99R WCI   1
ELBOW LAKE     CLOUDY    17  16  94 W6        30.01S WCI   9
WADENA         FLURRIES  12  10  92 NW5       29.98R WCI   4
GLENWOOD       CLOUDY    16  16 100 NW10      29.99S WCI   3
APPLETON         N/A     21  19  93 NW5       30.02S WCI  15
BENSON         CLOUDY    19  16  86 N7        30.02S WCI  10
ORTONVILLE     CLOUDY    21  18  86 CALM      30.02S
MADISON        CLOUDY    25  19  80 CALM      30.03S
WILLMAR        CLOUDY    19  18  93 NW8       30.02S WCI   9
$$
MNZ033>034-036-042>043-049>051-058-059-141500-
   Central Minnesota

CITY           SKY/WX    TMP DP  RH WIND       PRES   REMARKS
ST CLOUD       CLOUDY    17  14  88 SW3       30.00S
SAUK CENTRE    CLOUDY    16  14  91 W7        29.99S WCI   6
PAYNESVILLE    CLOUDY    18  17  94 W7        30.01S WCI   9
AITKIN         CLOUDY    12   9  85 CALM      29.96F
PINE RIVER     CLOUDY    12  10  92 W6        30.01R WCI   3
BRAINERD       CLOUDY    16  12  84 W5        29.98R WCI   9
STAPLES        CLOUDY    12  10  92 CALM      29.98S
LONG PRAIRIE   CLOUDY    16  14  93 W5        29.99R WCI   9
LITTLE FALLS   CLOUDY    18  10  73 CALM      30.00S
LITCHFIELD     CLOUDY    19  16  86 CALM      30.01S
BUFFALO        CLOUDY    16  13  88 CALM      30.03S
MAPLE LAKE     CLOUDY    17  15  90 CALM      30.02F
HUTCHINSON     CLOUDY    17  15  90 CALM      30.02F
$$
MNZ037-044-045-052-053-141500-
   East Central Minnesota

CITY           SKY/WX    TMP DP  RH WIND       PRES   REMARKS
PRINCETON      CLOUDY    16  12  86 CALM      30.01R
MORA           CLOUDY    14  12  92 CALM      30.01S
CAMBRIDGE      FLURRIES  16  12  86 CALM      30.02R
RUSH CITY      CLOUDY    14  11  88 CALM      30.01S
MOOSE LAKE     CLOUDY    18  12  79 NW3       29.96S
HINCKLEY       CLOUDY    18  14  86 SW3       29.99S
CLOQUET        FLURRIES  14  10  85 W7        29.95S WCI   4
MCGREGOR       CLOUDY    16  12  86 W5        29.98R WCI   9
$$
MNZ071>073-080-081-089-090-097-098-141500-
   Southwest Minnesota

CITY           SKY/WX    TMP DP  RH WIND       PRES   REMARKS
MONTEVIDEO     CLOUDY    21  18  86 N3        30.03R
GRANITE FALLS  CLOUDY    23  19  85 N3        30.04S
CANBY          CLOUDY    24  21  89 N5        30.02S WCI  18
MARSHALL       CLOUDY    21  18  88 NE5       30.02R WCI  15
REDWOOD FALLS  CLOUDY    21  15  78 N6        30.02S WCI  13
OLIVIA         CLOUDY    21  18  86 NW9       30.01S WCI  11
PIPESTONE      CLOUDY    25  23  93 W3        29.99R
WINDOM           N/A     21  10  63 NW7       30.01S WCI  13
WORTHINGTON    CLOUDY    21  19  92 CALM      30.01S
JACKSON        CLOUDY    21  19  93 MISG      30.01S
SLAYTON        CLOUDY    22  20  93 CALM      30.00S
$$
MNZ065>067-074>077-082>085-091>093-141500-
   South Central Minnesota

CITY           SKY/WX    TMP DP  RH WIND       PRES   REMARKS
MANKATO        CLOUDY    15  13  91 SW5       30.04R WCI   8
NEW ULM        CLOUDY    18  14  86 CALM      30.03R
ST JAMES       CLOUDY    19  16  86 CALM      30.04S
FAIRMONT       CLOUDY    19  15  84 S3        30.04R
GLENCOE        CLOUDY    18  15  90 CALM      30.02S
FARIBAULT      CLEAR      7   5  92 CALM      30.03R
OWATONNA       CLOUDY     7   3  85 CALM      30.01S FOG
WASECA         CLEAR      9   5  85 CALM      30.05R
$$
MNZ078>079-086>088-094>096-141500-
   Southeast Minnesota

CITY           SKY/WX    TMP DP  RH WIND       PRES   REMARKS
ROCHESTER      PTCLDY     7   5  91 SW5       30.01R FOG     WCI  -2
RED WING       CLOUDY    12   9  85 CALM      30.04R FOG
STANTON        CLEAR      8   4  86 CALM      30.02R
DODGE CENTER   CLOUDY     7   3  85 CALM      30.00S FOG
WINONA         MOCLDY    12   9  85 CALM      30.07R
PRESTON        CLOUDY    10   7  89 SW5       30.02R WCI   1
$$
ABBREVIATIONS USED IN REMARKS
   TC - TEMPERATURES IN CELSIUS
  WCI - WIND CHILL INDEX
   HX - HEAT INDEX
  VSB - VISIBILITY
$$




USA.gov is the U.S. government's official web portal to all federal, state and local government web resources and services.